Location: �clusier
(49.9361°N, 2.7869°E)
Time: 00:44:14
(UTC+00:00)

Cosmos 2322 - Visible Passes

Search period start: 24 October 2021 00:00
Search period end: 03 November 2021 00:00
Orbit: 840 x 855 km, 71.0° (Epoch: 23 October)

Date Brightness Start Highest point End Pass type
(mag) Time Alt. Az. Time Alt. Az. Time Alt. Az.
24 Oct 6.4 02:06:16 10° N 02:09:00 14° NNE 02:11:55 10° ENE visible
24 Oct 4.8 03:49:19 10° NNW 03:54:47 44° NE 04:00:11 10° ESE visible
24 Oct 4.2 05:33:41 10° NW 05:38:55 38° WSW 05:44:07 10° S visible
24 Oct 4.9 18:46:38 10° S 18:49:21 25° SSE 18:49:21 25° SSE visible
24 Oct 6.0 20:30:20 10° SW 20:31:24 16° WSW 20:31:24 16° WSW visible
25 Oct 6.4 01:54:01 12° N 01:55:40 14° NNE 01:58:32 10° ENE visible
25 Oct 4.8 03:36:01 10° NNW 03:41:29 43° NE 03:46:52 10° ESE visible
25 Oct 4.2 05:20:23 10° NW 05:25:38 39° WSW 05:30:51 10° S visible
25 Oct 4.3 18:33:22 10° S 18:38:00 35° ESE 18:38:00 35° ESE visible
25 Oct 5.2 20:17:01 10° SW 20:20:02 30° WSW 20:20:02 30° WSW visible
26 Oct 6.4 01:41:59 14° NNE 01:42:21 14° NNE 01:45:11 10° ENE visible
26 Oct 4.8 03:24:00 16° NNW 03:28:10 42° NE 03:33:32 10° ESE visible
26 Oct 4.1 05:07:04 10° NW 05:12:20 40° WSW 05:17:34 10° S visible
26 Oct 4.3 18:20:06 10° S 18:25:12 35° ESE 18:26:28 31° E visible
26 Oct 4.6 20:03:42 10° SW 20:08:30 46° WNW 20:08:30 46° WNW visible
27 Oct 6.5 01:30:12 13° NE 01:30:12 13° NE 01:31:48 10° NE visible
27 Oct 4.8 03:12:14 26° N 03:14:52 42° NE 03:20:13 10° ESE visible
27 Oct 4.1 04:54:15 12° NW 04:59:03 41° WSW 05:04:17 10° S visible
27 Oct 4.3 18:06:50 10° S 18:11:54 34° ESE 18:14:42 22° ENE visible
27 Oct 4.5 19:50:23 10° SW 19:55:55 49° NW 19:56:42 46° NNW visible
27 Oct 6.6 21:38:20 10° WNW 21:38:42 11° WNW 21:38:42 11° WNW visible
28 Oct 4.8 03:00:41 39° NNE 03:01:33 41° NE 03:06:54 10° ESE visible
28 Oct 4.0 04:42:44 23° NW 04:45:45 41° WSW 04:51:01 10° S visible
28 Oct 4.3 17:53:34 10° SSE 17:58:37 33° ESE 18:02:40 15° NE visible
28 Oct 4.5 19:37:04 10° SW 19:42:37 50° NW 19:44:40 35° N visible
28 Oct 6.4 21:24:58 10° WNW 21:26:39 14° NW 21:26:39 14° NW visible
29 Oct 5.0 02:49:20 37° ENE 02:49:20 37° ENE 02:53:34 10° ESE visible
29 Oct 4.0 04:31:23 38° W 04:32:27 42° WSW 04:37:44 10° S visible
29 Oct 4.4 17:40:18 10° SSE 17:45:20 33° ESE 17:50:22 10° NE visible
29 Oct 4.5 19:23:45 10° SW 19:29:18 51° NW 19:32:24 25° N visible
29 Oct 6.3 21:11:36 10° WNW 21:14:23 15° NW 21:14:23 15° NW visible
30 Oct 5.7 02:38:05 22° ESE 02:38:05 22° ESE 02:40:15 10° ESE visible
30 Oct 4.2 04:20:08 39° SW 04:20:08 39° SW 04:24:28 10° S visible
30 Oct 4.4 17:27:02 10° SSE 17:32:02 32° ESE 17:37:03 10° NE visible
30 Oct 4.4 19:10:26 10° SW 19:16:00 51° NW 19:19:57 19° NNE visible
30 Oct 6.2 20:58:15 10° WNW 21:01:36 16° NNW 21:01:55 15° NNW visible
31 Oct 6.4 02:26:51 10° ESE 02:26:51 10° ESE 02:26:55 10° ESE visible
31 Oct 5.1 04:08:56 23° SSW 04:08:56 23° SSW 04:11:11 10° S visible
31 Oct 4.5 17:13:47 10° SSE 17:18:45 32° ESE 17:23:44 10° NE visible
31 Oct 4.4 18:57:08 10° SW 19:02:42 52° NW 19:07:21 15° NNE visible
31 Oct 6.2 20:44:54 10° WNW 20:48:17 16° NNW 20:49:19 15° NNW visible
01 Nov 5.9 03:57:40 11° S 03:57:40 11° S 03:57:54 10° S visible
01 Nov 4.5 17:00:30 10° SSE 17:05:27 31° ESE 17:10:25 10° NE visible
01 Nov 4.4 18:43:48 10° SW 18:49:23 53° NW 18:54:39 12° NNE visible
01 Nov 6.2 20:31:32 10° WNW 20:34:57 16° NNW 20:36:36 14° NNW visible
02 Nov 4.4 18:30:29 10° SW 18:36:05 54° NW 18:41:42 10° NNE visible
02 Nov 6.2 20:18:10 10° WNW 20:21:38 16° NNW 20:23:48 13° N visible
